{"data":{"norad_id":63436,"intl_designator":"2025-069D","name":"STARLINK-33638","alt_names":[],"object_type":"PAYLOAD","status":"ACTIVE","operator":null,"country":"US","launch_date":"2025-04-04","launch_site_code":"AFWTR","launch_vehicle":null,"mission":null,"orbit_class":"UNKNOWN","rcs_meters":null,"size_class":null,"mass_kg":null,"dimensions":null,"purposes":["comms"],"wikipedia_slug":null,"has_3d_model":false,"image_url":null,"decayed_at":null,"tle_current":{"epoch":"2026-05-25T03:24:24.955200Z","epoch_age_seconds":56716,"freshness":"FRESH","line1":"1 63436U 25069D   26145.14195550  .00043019  00000+0  99124-3 0  9996","line2":"2 63436  53.1581 144.9683 0001570  86.7091 273.4095 15.42196604 65140","mean_motion":15.42196604,"eccentricity":0.000157,"inclination_deg":53.1581,"raan_deg":144.9683,"arg_perigee_deg":86.7091,"mean_anomaly_deg":273.4095,"bstar":0.00099124,"rev_number":6514,"period_min":93.373308971442,"perigee_km":438.55738283663,"apogee_km":440.69816097501,"semimajor_km":6817.7647719058,"source":"CELESTRAK","updated_at":"2026-05-25T13:38:19.997699Z"}}}